{"data":{"norad_id":67394,"intl_designator":"2026-004AH","name":"TWILIGHT-1 OBJECT AH","alt_names":[],"object_type":"PAYLOAD","status":"ACTIVE","operator":null,"country":"TBD","launch_date":"2026-01-11","launch_site_code":"AFWTR","launch_vehicle":null,"mission":null,"orbit_class":"UNKNOWN","rcs_meters":null,"size_class":null,"mass_kg":null,"dimensions":null,"purposes":[],"wikipedia_slug":null,"has_3d_model":false,"image_url":null,"decayed_at":null,"tle_current":{"epoch":"2026-09-20T13:34:37.401024Z","epoch_age_seconds":94517,"freshness":"FRESH","line1":"1 67394U 26004AH  26263.56571066  .00002869  00000+0  13594-3 0  9995","line2":"2 67394  97.4566 261.4742 0008881  16.0599 344.0916 15.20097493 38254","mean_motion":15.20097493,"eccentricity":0.0008881,"inclination_deg":97.4566,"raan_deg":261.4742,"arg_perigee_deg":16.0599,"mean_anomaly_deg":344.0916,"bstar":0.00013594,"rev_number":3825,"period_min":94.730766061463,"perigee_km":499.43287087596,"apogee_km":511.65966910011,"semimajor_km":6883.683269988,"source":"CELESTRAK","updated_at":"2026-09-21T09:00:16.599795Z"}}}